Le nostre stazioni meteo in Italia

Pubblicità
Il mio iltempo24.it
Vignola, Italia (16137): Temperatura & dewpoint: 12.03.2019 20:00:00 - 18.03.2019 20:00:00 (CET)Vignola, Italia (16137): reduced air pressure: 12.03.2019 20:00:00 - 18.03.2019 20:00:00 (CET)Vignola, Italia (16137): precipitazioni: 12.03.2019 20:00:00 - 18.03.2019 20:00:00 (CET)
Data & Tempo tt [°C] td [°C] ppp [hPa] rr [mm]
18.03.2019 20:00:00 - - - -
18.03.2019 19:00:00 7,2 1,1 1018,6 0,0
18.03.2019 18:00:00 8,5 1,4 1017,8 0,0
18.03.2019 17:00:00 9,1 1,5 1016,8 0,0
18.03.2019 16:00:00 10,0 3,5 1015,9 0,0
18.03.2019 15:00:00 10,7 4,8 1015,5 0,0
18.03.2019 14:00:00 10,5 5,1 1015,3 0,0
18.03.2019 13:00:00 13,4 1,4 1014,7 0,0
18.03.2019 12:00:00 12,6 3,8 1014,4 0,0
18.03.2019 11:00:00 12,8 0,8 1013,5 0,0
18.03.2019 10:00:00 11,4 4,1 1013,3 0,0
18.03.2019 09:00:00 10,1 4,2 1012,8 0,2
18.03.2019 08:00:00 8,2 4,8 1012,2 1,0
18.03.2019 07:00:00 8,4 4,8 1011,6 0,2
18.03.2019 06:00:00 9,9 6,6 1010,7 0,4
18.03.2019 05:00:00 12,2 3,9 1008,5 0,0
18.03.2019 04:00:00 8,9 2,5 1008,9 0,0
18.03.2019 03:00:00 8,1 1,9 1009,6 0,0
18.03.2019 02:00:00 8,5 1,9 1010,0 0,0
18.03.2019 01:00:00 9,1 2,0 1010,4 0,0
18.03.2019 00:00:00 9,1 2,6 1010,5 0,0
17.03.2019 23:00:00 9,3 3,7 1011,3 0,0
17.03.2019 22:00:00 8,4 4,2 1011,5 0,0
17.03.2019 21:00:00 9,8 5,0 1011,3 0,0
17.03.2019 20:00:00 11,3 5,2 1011,3 0,0
17.03.2019 19:00:00 13,2 5,4 1011,4 0,0
17.03.2019 18:00:00 16,0 5,6 1011,2 0,0
17.03.2019 17:00:00 17,7 6,2 1011,3 0,0
17.03.2019 16:00:00 18,8 6,3 1011,7 0,0
17.03.2019 15:00:00 19,0 6,5 1012,2 0,0
17.03.2019 14:00:00 18,2 6,4 1012,6 0,0
17.03.2019 13:00:00 17,9 6,1 1014,0 0,0
17.03.2019 12:00:00 17,2 6,1 1015,0 0,0
17.03.2019 11:00:00 15,8 6,5 1015,9 0,0
17.03.2019 10:00:00 14,8 6,1 1016,2 0,0
17.03.2019 09:00:00 13,3 5,0 1016,5 0,0
17.03.2019 08:00:00 9,1 4,7 1016,6 0,0
17.03.2019 07:00:00 4,5 1,9 1016,5 0,0
17.03.2019 06:00:00 4,3 1,7 1016,2 0,0
17.03.2019 05:00:00 4,3 2,0 1016,2 0,0
17.03.2019 04:00:00 4,4 2,3 1016,1 0,0
17.03.2019 03:00:00 5,0 2,4 1015,8 0,0
17.03.2019 02:00:00 6,7 3,3 1015,9 0,0
17.03.2019 01:00:00 5,6 2,8 1016,0 0,0
17.03.2019 00:00:00 6,4 3,9 1016,1 0,0
16.03.2019 23:00:00 7,8 4,2 1015,7 0,0
16.03.2019 22:00:00 8,3 4,3 1015,1 0,0
16.03.2019 21:00:00 10,8 5,5 1014,5 0,0
16.03.2019 20:00:00 11,9 4,8 1013,8 0,0
16.03.2019 19:00:00 14,6 5,4 1013,3 0,0
16.03.2019 18:00:00 19,5 5,2 1012,9 0,0
16.03.2019 17:00:00 21,2 4,7 1012,6 0,0
16.03.2019 16:00:00 21,6 5,1 1012,6 0,0
16.03.2019 15:00:00 21,9 4,9 1012,9 0,0
16.03.2019 14:00:00 20,9 5,3 1013,3 0,0
16.03.2019 13:00:00 20,3 3,9 1014,1 0,0
16.03.2019 12:00:00 18,7 2,9 1014,6 0,0
16.03.2019 11:00:00 17,6 3,5 1014,8 0,0
16.03.2019 10:00:00 16,4 3,1 1014,6 -
16.03.2019 09:00:00 12,9 3,5 1014,8 0,0
16.03.2019 08:00:00 10,2 2,5 - 0,0
16.03.2019 07:00:00 5,6 0,0 1013,4 0,0
16.03.2019 06:00:00 7,5 0,0 1013,0 0,0
16.03.2019 05:00:00 8,2 -0,3 1012,8 0,0
16.03.2019 04:00:00 9,0 -0,1 1012,5 0,0
16.03.2019 03:00:00 8,4 0,1 1012,8 0,0
16.03.2019 02:00:00 8,1 0,8 1013,0 0,0
16.03.2019 01:00:00 7,9 1,1 1013,0 0,0
16.03.2019 00:00:00 7,4 1,0 1012,9 0,0
15.03.2019 23:00:00 8,2 1,1 1012,9 0,0
15.03.2019 22:00:00 8,4 1,5 1012,5 0,0
15.03.2019 21:00:00 8,6 2,0 1011,6 0,0
15.03.2019 20:00:00 10,2 2,5 1011,1 0,0
15.03.2019 19:00:00 12,8 2,9 1010,6 0,0
15.03.2019 18:00:00 17,4 2,9 1010,1 0,0
15.03.2019 17:00:00 19,4 3,1 1009,4 0,0
15.03.2019 16:00:00 20,6 2,9 1009,2 0,0
15.03.2019 15:00:00 20,4 2,7 1009,4 0,0
15.03.2019 14:00:00 20,7 2,0 1009,3 0,0
15.03.2019 13:00:00 19,6 2,0 1009,8 0,0
15.03.2019 12:00:00 18,3 1,3 1010,6 0,0
15.03.2019 11:00:00 15,9 0,5 1011,2 0,0
15.03.2019 10:00:00 14,2 0,1 1011,4 0,0
15.03.2019 09:00:00 13,6 -0,5 1010,6 0,0
15.03.2019 08:00:00 10,1 -2,9 1010,5 0,0
15.03.2019 07:00:00 6,3 -4,8 1010,4 0,0
15.03.2019 06:00:00 4,5 -4,8 1010,3 0,0
15.03.2019 05:00:00 3,7 -5,2 1009,7 0,0
15.03.2019 04:00:00 2,6 -5,1 1009,6 0,0
15.03.2019 03:00:00 4,4 -5,7 1009,0 0,0
15.03.2019 02:00:00 5,6 -5,7 1008,7 0,0
15.03.2019 01:00:00 4,9 -6,0 1008,3 0,0
15.03.2019 00:00:00 7,2 -7,3 1008,4 0,0
14.03.2019 23:00:00 5,3 -6,0 1008,7 0,0
14.03.2019 22:00:00 7,5 -6,6 1008,8 0,0
14.03.2019 21:00:00 10,7 -6,2 1008,8 0,0
14.03.2019 20:00:00 10,5 -5,5 1009,5 0,0
14.03.2019 19:00:00 11,2 -0,9 1009,6 0,0
14.03.2019 18:00:00 13,5 -1,7 1009,5 0,0
14.03.2019 17:00:00 15,2 -2,3 1009,6 0,0
14.03.2019 16:00:00 15,1 -2,8 1010,3 0,0
14.03.2019 15:00:00 16,0 -4,0 1011,3 0,0
14.03.2019 14:00:00 16,2 -4,4 1011,9 0,0
14.03.2019 13:00:00 15,3 -2,6 1013,5 0,0
14.03.2019 12:00:00 14,3 0,2 1014,2 0,0
14.03.2019 11:00:00 12,5 -0,4 1014,8 0,0
14.03.2019 10:00:00 11,2 -0,3 1015,6 0,0
14.03.2019 09:00:00 8,6 0,3 1015,7 0,0
14.03.2019 08:00:00 4,6 0,0 1016,0 0,0
14.03.2019 07:00:00 -0,3 -1,9 1016,2 0,0
14.03.2019 06:00:00 -0,5 -2,2 1016,2 0,0
14.03.2019 05:00:00 0,1 -2,1 1016,1 0,0
14.03.2019 04:00:00 2,9 -0,6 1015,7 0,0
14.03.2019 03:00:00 4,1 0,3 1015,3 0,0
14.03.2019 02:00:00 3,0 0,2 1015,5 0,2
14.03.2019 01:00:00 1,7 -0,1 1015,6 0,0
14.03.2019 00:00:00 1,3 -0,5 1015,4 0,0
13.03.2019 23:00:00 2,0 0,2 1015,0 0,0
13.03.2019 22:00:00 3,3 1,2 1014,3 0,0
13.03.2019 21:00:00 3,9 1,8 1014,1 0,0
13.03.2019 20:00:00 4,6 1,6 1013,8 0,0
13.03.2019 19:00:00 6,4 2,8 1013,1 0,0
13.03.2019 18:00:00 7,1 2,6 1012,4 0,2
13.03.2019 17:00:00 7,6 1,7 1012,5 0,0
13.03.2019 16:00:00 8,2 0,2 1012,5 0,0
13.03.2019 15:00:00 - - - -
13.03.2019 14:00:00 - - - -
13.03.2019 13:00:00 - - - -
13.03.2019 12:00:00 9,3 -2,0 1013,9 0,0
13.03.2019 11:00:00 9,2 -4,4 1013,6 0,0
13.03.2019 10:00:00 9,3 -5,4 1013,9 0,0
13.03.2019 09:00:00 7,8 -5,6 1014,4 0,0
13.03.2019 08:00:00 5,3 -6,3 1014,9 0,0
13.03.2019 07:00:00 1,2 -7,3 1015,6 0,0
13.03.2019 06:00:00 1,8 -8,9 1015,8 0,0
13.03.2019 05:00:00 2,5 -9,1 1016,0 0,0
13.03.2019 04:00:00 4,1 -10,4 1016,4 0,0
13.03.2019 03:00:00 4,9 -10,8 1017,5 0,0
13.03.2019 02:00:00 5,5 -9,9 1018,4 0,0
13.03.2019 01:00:00 6,4 -9,9 1019,0 0,0
13.03.2019 00:00:00 5,6 -9,0 1019,7 0,0
12.03.2019 23:00:00 4,7 -7,8 1020,1 0,0
12.03.2019 22:00:00 4,7 -9,8 1020,6 0,0
12.03.2019 21:00:00 4,2 -8,9 1020,9 0,0
12.03.2019 20:00:00 5,1 -8,4 1021,0 0,0

tt = Temperatura
td = dewpoint
ppp = reduced air pressure
rr = precipitazioni

Stazioni seguenti

WeatherPro
AMSI
MeteoEarth